Regional Weather Roundup
Issued by NWS

Home | Current Version | Previous Version | Text Only | Print | Product List | Glossary On
Versions: 1 2 3 4 5 6 7 8 9 10 11 12 13 14 15 16 17 18 19 20 21 22 23 24 25 26 27 28 29 30 31 32 33 34 35 36 37 38 39 40 41 42 43 44 45 46 47 48 49 50
000
ASUS44 KMEG 010600
RWRTN
TENNESSEE HOURLY STATE WEATHER ROUNDUP
NATIONAL WEATHER SERVICE MEMPHIS TN
100 AM CDT SAT NOV 01 2014

TNZ002-004-019-021-049-052-054-088>092-010700-
WEST TENNESSEE

CITY           SKY/WX    TMP DP  RH WIND       PRES   REMARKS
MEMPHIS INTL   CLEAR     40  22  48 NW10      30.32F WCI  33
NWS MEMPHIS      N/A     38 N/A N/A MISG        N/A
JACKSON        CLEAR     38  24  57 N12       30.28S WCI  30
DYERSBURG      CLEAR     37  18  44 N8        30.32F WCI  31
UNION CITY     CLEAR     36  21  55 N12       30.28S WCI  27
PARIS          CLEAR     34  21  60 N9        30.25S WCI  26
LEXINGTON      CLEAR     37  21  52 N14       30.21F WCI  29
SAVANNAH       CLEAR     37  21  52 NW13      30.23S WCI  29
$$

TNZ008-025-027-028-033-062-065-066-010700-
NORTH MIDDLE TENNESSEE

CITY           SKY/WX    TMP DP  RH WIND       PRES   REMARKS
NASHVILLE      CLOUDY    40  26  57 NW21G31   30.13R WCI  30
CLARKSVILLE    CLOUDY    39  24  55 NW21G31   30.19S WCI  29
CROSSVILLE     LGT SNOW  33  29  85 W10       29.96F FOG     WCI  25
$$

TNZ061-075-076-078-094-096-097-010700-
SOUTH MIDDLE TENNESSEE

CITY           SKY/WX    TMP DP  RH WIND       PRES   REMARKS
FAYETTEVILLE   CLOUDY    37  25  60 NW21G99   30.09F WCI  27
WINCHESTER     CLOUDY    37  27  65 NW14      30.07S WCI  29
SHELBYVILLE    CLOUDY    39  27  60 N22       30.11S WCI  29
$$

TNZ017-018-042-046-047-010700-
NORTHEAST TENNESSEE

CITY           SKY/WX    TMP DP  RH WIND       PRES   REMARKS
TRI CITIES     LGT SNOW  34  33  96 W6        29.88F FOG     WCI  29
ELIZABETHTON   FLURRIES  30  30 100 SW6       29.87F WCI  24
$$

TNZ012-013-036-069-073-074-010700-
CENTRAL EAST TENNESSEE

CITY           SKY/WX    TMP DP  RH WIND       PRES   REMARKS
KNOXVILLE      LGT RAIN  35  34  96 SW5       29.95F WCI  31
OAK RIDGE      MOCLDY    39  30  70 VRB5      29.97F
GATLINBURG     CLOUDY    34  32  93 W6        29.94F WCI  29
$$

TNZ083-085-099-010700-
SOUTHEAST TENNESSEE

CITY           SKY/WX    TMP DP  RH WIND       PRES   REMARKS
CHATTANOOGA    LGT RAIN  38  32  79 NW9       30.03F WCI  31
$$

SKY/WX REPORTED AS FAIR MEANS FEW OR NO CLOUDS BELOW
12 THOUSAND FEET.




USA.gov is the U.S. government's official web portal to all federal, state and local government web resources and services.